默认 日期 大小 文件数 浏览量 最新下载 xml
40 pdf磁力链接相关资源由用户搜索指令自动获取,结果来源于网络,本站不存储任何资料,亦不承担任何责任,请于24小时内删除,搜索到2662个磁力,用时12ms。
    ... Cs5 For Dummies 2010.pdf": 30878849, "Advanced Programming ... Powell Gary Variadic Templates.pdf": 158547, "Kevin Schroeder ... Cambridge University Press 2003.pdf": 2027202, "Roland Schwientek ... International Management Knowledge 2008.pdf": 1574286, "Martin D ...
创建时间: 2022-05-18 10:25:36 大小:968.47 MB 文件数量:81 热度:6 最近下载:2025-01-02 12:26:11
    ... PDF Magazine.pdf": 23172137, "40 Magazine N 010 PDF Magazine.pdf": 28373296, "40 Magazine N 055 PDF ... Magazine.pdf": 54661241, "40 ...
创建时间: 2022-06-02 13:36:23 大小:3.73 GB 文件数量:121 热度:6 最近下载:2025-01-19 04:33:05
    ... ": 122452}, "Magazines": {"Tm 040622.pdf": 19068811, "Thesa4ilqnbcuk.pdf": 3417896, "2022 05 02 ... 01 Women Fitness International.pdf": 35530942, "Furniturecabinetmakingissue305april2022.pdf": 41933399, "The Wall Street ...
创建时间: 2022-06-16 19:08:39 大小:2.1 GB 文件数量:81 热度:6 最近下载:2025-01-06 05:30:04
    ... 09 Canon For Beginners.pdf": 55447360, "Thewoodworkerwoodturnerjune2022.pdf": 22496774, "2022 05 01 ... Ourcebook Japaneses Tyle 2008.pdf": 69081770, "Letscolourmagicalmandalas3rdedition2022.pdf": 28043569, "Katzung And Trevors ...
创建时间: 2022-06-16 19:16:40 大小:3.08 GB 文件数量:81 热度:6 最近下载:2025-10-01 15:55:02
    ... 05 19 Chat.pdf": 67977609, "Yourhomejuly2022.pdf": 28145716, "Birdwatchukmay2022.pdf": 35510765, "2022 04 ... Bloomberg Businessweek Europe Edition.pdf": 30104430, "Allabouthistorystoryofthefirstworldwar8thedition2022.pdf": 64660607, "Coutures Ewing The ...
创建时间: 2022-06-16 23:08:26 大小:1.95 GB 文件数量:81 热度:9 最近下载:2025-03-17 19:20:02
    ... Magazine June 2022.pdf": 94652178, "Radiocontroljetinternationalissue174junejuly2022.pdf": 23483451, "Elledecoritaliaenglisheditiondecember2021january2022.pdf": 50669066}, "Please Consider ...
创建时间: 2022-06-17 05:32:18 大小:2.14 GB 文件数量:81 热度:5 最近下载:2025-03-27 20:30:03
    ... pdf": 342080187, "Neweasterneuropeaprilmay2022.pdf": 18946911, "Playboy New Zealand May 2022.pdf": 48658909, "Theobservermagazine29may2022.pdf ... Life April 2022.pdf": 197108325, "Theultimatefansguidetoharrystyles1stedition2022.pdf": 32033312, "Furniture ...
创建时间: 2022-06-17 06:27:41 大小:2.16 GB 文件数量:81 热度:5 最近下载:2025-02-19 14:50:02
    ... Ecurity For Beginners.pdf": 72074297, "Ieeeonsumerelectronicsmagazinmarchapril2022.pdf": 26662564, "Allabouthistorybookofthecrusades5thedition2022.pdf": 49201637}, "Please Consider ...
创建时间: 2022-06-17 08:11:15 大小:2.55 GB 文件数量:81 热度:17 最近下载:2025-09-17 08:31:15
    ... 19 Womans Owns Pecial.pdf": 70904416, "Newmagazineissue97511april2022.pdf": 21888882, "2022 05 01womanhomesouth ... 04 July August 2022.pdf": 41735502, "Allabouthistorybookofromanemperors3rdedition2022.pdf": 59811284, "Classic Retro Modern ...
创建时间: 2022-06-17 08:30:05 大小:2.24 GB 文件数量:81 热度:3 最近下载:2025-01-10 16:34:02
    ... June 2022.pdf": 16536019, "Geographical March 1973.pdf": 79877793, "Ieeepotentialsapril2022.pdf": 8015573, "2022 ... Puzzlelife Puzzle Annuals Pecial.pdf": 91461233, "Historyofwarbattleoftheatlantic7thedition2022.pdf": 38662942, "2022 04 02 ...
创建时间: 2022-06-17 10:51:33 大小:2.1 GB 文件数量:81 热度:16 最近下载:2025-10-14 19:39:03
    ... pdf": 66829802, "Cfet2hza2nill.pdf": 18642314, "Fbc7klsaos6hn.pdf": 88412904, "Hjw2eudk2zion.pdf": 9501476, "Sikd5lhaio6mke.pdf ... Mai 2022.pdf": 19526577, "Howitworkslifehacks2ndedition2022.pdf": 29947161, "Mengafvmodellerissue124mayjune2022.pdf": 19252211, ...
创建时间: 2022-06-17 21:57:15 大小:2.66 GB 文件数量:81 热度:6 最近下载:2025-03-17 05:56:01
    ... The Economist Uk Edition.pdf": 36234685, "Themediterraneanlifestyleissue17aprilmay2022.pdf": 155529329, "Teach Primary ... News Cientist International Edition.pdf": 33311094, "Allabouthistoryscandalsofthewindsors3rdedition2022.pdf": 71213967}, "Please Consider ...
创建时间: 2022-06-18 20:16:25 大小:3.18 GB 文件数量:81 热度:3 最近下载:2025-01-04 21:25:12
    ... ": 19684, "[PDF] 40 Jules Verne - Claudius Bombarnac. Keraban Incapatinatul 1989.pdf": 77025484, "pdf-40-jules ... ": 11717604, "[PDF] 40 Jules Verne - Claudius Bombarnac. Keraban Incapatinatul 1989_text.pdf": 7039063, "[PDF] 40 Jules ...
创建时间: 2022-10-16 06:23:07 大小:147.8 MB 文件数量:14 热度:5 最近下载:2025-01-10 10:02:01
    {"Books List Part 2.txt": 2881, "40 Assorted Books Collection PDF-EPUB Part 2.rar": 698402323}
创建时间: 2022-11-30 09:55:00 大小:666.05 MB 文件数量:2 热度:3 最近下载:2025-01-10 13:06:06
    {"Books List Part 9.txt": 2673, "40 Assorted Books Collection PDF-EPUB Part 9.rar": 923057356}
创建时间: 2022-11-30 18:28:48 大小:880.3 MB 文件数量:2 热度:4 最近下载:2025-01-23 21:03:02
    {"Books List Part 1.txt": 2702, "40 Assorted Books Collection PDF-EPUB Part 1.rar": 1181857967}
创建时间: 2022-11-30 19:30:10 大小:1.1 GB 文件数量:2 热度:3 最近下载:2025-02-06 05:29:07
    {"Books List Part 8.txt": 2632, "40 Assorted Books Collection PDF-EPUB Part 8.rar": 607979713}
创建时间: 2022-11-30 19:52:31 大小:579.82 MB 文件数量:2 热度:4 最近下载:2025-02-24 03:12:03
    {"Books List Part 5.txt": 3041, "40 Assorted Books Collection PDF-EPUB Part 5.rar": 742340620}
创建时间: 2022-11-30 21:42:35 大小:707.95 MB 文件数量:2 热度:3 最近下载:2025-01-10 13:06:06
    {"Books List Part 6.txt": 2849, "40 Assorted Books Collection PDF-EPUB Part 6.rar": 583291458}
创建时间: 2022-12-01 05:25:49 大小:556.27 MB 文件数量:2 热度:6 最近下载:2025-10-16 02:31:03
    {"Books List Part 11.txt": 2633, "40 Assorted Books Collection PDF-EPUB Part 11.rar": 781070513}
创建时间: 2022-12-01 06:05:01 大小:744.89 MB 文件数量:2 热度:5 最近下载:2025-10-09 23:41:03